TimePDT,TemperatureF,Dew PointF,Humidity,Sea Level PressureIn,VisibilityMPH,Wind Direction,Wind SpeedMPH,Gust SpeedMPH,PrecipitationIn,Events,Conditions,WindDirDegrees,DateUTC
12:53 AM,63.0,55.9,78,29.94,10.0,NW,5.8,-,N/A,,Clear,310,2013-10-01 07:53:00
1:53 AM,62.1,55.9,80,29.95,10.0,NW,10.4,-,N/A,,Clear,310,2013-10-01 08:53:00
2:53 AM,60.1,55.0,83,29.95,10.0,NW,4.6,-,N/A,,Clear,310,2013-10-01 09:53:00
3:53 AM,59.0,55.0,87,29.95,10.0,NW,5.8,-,N/A,,Clear,310,2013-10-01 10:53:00
4:53 AM,57.9,55.9,93,29.95,10.0,NW,9.2,-,N/A,,Clear,320,2013-10-01 11:53:00
5:53 AM,57.0,54.0,89,29.96,10.0,NW,5.8,-,N/A,,Clear,320,2013-10-01 12:53:00
6:40 AM,55.4,53.6,94,29.98,10.0,Calm,Calm,-,N/A,,Partly Cloudy,0,2013-10-01 13:40:00
6:53 AM,55.9,53.1,90,29.97,10.0,Calm,Calm,-,N/A,,Scattered Clouds,0,2013-10-01 13:53:00
7:01 AM,55.4,51.8,88,29.99,10.0,Calm,Calm,-,N/A,,Mostly Cloudy,0,2013-10-01 14:01:00
7:53 AM,57.0,54.0,89,29.99,10.0,North,4.6,-,N/A,,Overcast,360,2013-10-01 14:53:00
8:53 AM,61.0,55.0,81,29.99,10.0,NNW,6.9,-,N/A,,Mostly Cloudy,340,2013-10-01 15:53:00
9:13 AM,60.8,53.6,77,30.01,10.0,NNW,6.9,-,N/A,,Scattered Clouds,330,2013-10-01 16:13:00
9:53 AM,64.9,54.0,68,29.99,10.0,NNW,12.7,-,N/A,,Clear,330,2013-10-01 16:53:00
10:53 AM,66.0,48.9,54,29.98,10.0,NW,10.4,-,N/A,,Clear,310,2013-10-01 17:53:00
11:53 AM,71.1,52.0,51,29.96,10.0,NW,8.1,-,N/A,,Clear,320,2013-10-01 18:53:00
12:53 PM,75.0,52.0,44,29.94,10.0,Variable,3.5,-,N/A,,Clear,0,2013-10-01 19:53:00
1:53 PM,79.0,52.0,39,29.91,10.0,Variable,6.9,-,N/A,,Clear,0,2013-10-01 20:53:00
2:53 PM,80.1,50.0,35,29.89,10.0,Calm,Calm,-,N/A,,Clear,0,2013-10-01 21:53:00
3:53 PM,82.9,48.9,31,29.87,10.0,NNW,4.6,-,N/A,,Clear,330,2013-10-01 22:53:00
4:53 PM,82.9,48.0,29,29.86,10.0,WNW,5.8,-,N/A,,Clear,290,2013-10-01 23:53:00
5:53 PM,81.0,46.9,30,29.86,10.0,NNW,12.7,-,N/A,,Clear,330,2013-10-02 00:53:00
6:53 PM,72.0,43.0,35,29.86,10.0,WNW,10.4,-,N/A,,Clear,290,2013-10-02 01:53:00
7:53 PM,66.0,42.1,42,29.88,10.0,WNW,13.8,-,N/A,,Clear,300,2013-10-02 02:53:00
8:53 PM,63.0,43.0,48,29.91,10.0,NW,15.0,-,N/A,,Clear,310,2013-10-02 03:53:00
9:53 PM,61.0,42.1,50,29.91,10.0,NW,16.1,19.6,N/A,,Clear,310,2013-10-02 04:53:00
10:53 PM,60.1,42.1,51,29.92,10.0,NW,9.2,-,N/A,,Clear,310,2013-10-02 05:53:00
11:53 PM,57.9,43.0,58,29.92,10.0,NW,8.1,-,N/A,,Clear,310,2013-10-02 06:53:00